Location: Northern Prairie Star Party
(53.2167°N, 112.5333°W)
Time: 12:24:33
(UTC-06:00)

Daily predictions for brighter satellites

Satellite Brightness Start Highest point End
(mag) Time Altitude Azimuth Time Altitude Azimuth Time Altitude Azimuth
ATLAS 2AS CENTAUR R/B 3.6 19:46:51 10° NW 19:54:42 47° NNE 20:02:16 10° E
Cosmos 1937 Rocket 4.0 19:51:33 10° NNW 19:56:51 67° WSW 20:02:05 10° SSE
SJ-6B 3.0 19:53:21 10° SE 19:57:13 50° ENE 20:01:01 10° N
Cosmos 1825 Rocket 4.1 19:54:01 10° NNW 19:58:24 67° W 20:02:48 10° S
Cosmos 841 Rocket 4.2 19:55:40 10° SSE 20:00:09 31° ESE 20:04:38 10° NE
Cosmos 468 Rocket 4.0 19:55:17 10° S 20:00:26 63° ESE 20:05:41 10° NNE
Cosmos 2360 Rocket 4.5 19:59:11 10° NNW 20:01:37 13° N 20:04:05 10° NNE
NOSS 3-1 (A) 4.1 19:56:59 10° NW 20:04:19 84° SW 20:12:35 10° SE
Cosmos 1697 Rocket 4.1 20:00:28 10° NNW 20:04:56 23° NNE 20:09:22 10° E
Cosmos 1980 Rocket 3.9 20:01:38 10° NNW 20:05:29 18° NNE 20:09:21 10° ENE
ALOS 2.6 20:01:47 10° S 20:06:27 71° WSW 20:11:08 10° NNW
HJ-1C 3.4 20:08:44 10° SSE 20:12:03 62° ENE 20:15:24 10° N
FREGAT/IRIS 2.7 20:09:58 10° SSE 20:13:01 82° WSW 20:16:04 10° NNW
NOSS 3-1 (C) 4.5 20:06:09 10° NW 20:13:25 66° SW 20:21:34 10° SSE
H-2A R/B 2.6 20:11:46 10° SSE 20:15:29 83° ENE 20:19:18 10° NNW
Cosmos 1763 Rocket 3.6 20:15:07 10° S 20:20:06 55° ESE 20:25:11 10° NNE
Cosmos 540 Rocket 4.4 20:16:35 10° SSE 20:20:41 25° E 20:24:48 10° NE
EP 1 4.3 20:21:02 10° SW 20:23:36 80° NW 20:26:25 10° NE
COSMO-SKYMED 1 3.5 20:19:29 10° N 20:23:44 53° WNW 20:27:58 10° SW
SL-08 ROCKET BODY 4.3 20:19:05 10° S 20:24:57 71° E 20:30:56 10° NNE
Meteor 2-5 Rocket 4.2 20:20:36 10° NNW 20:26:29 71° W 20:32:13 10° S
Cosmos 1656 Rocket 4.3 20:21:42 10° NW 20:27:17 59° WSW 20:32:46 10° SSE
Cosmos 1707 3.9 20:24:56 10° NNW 20:28:44 48° W 20:32:32 10° S
SL-16 R/B 4.3 20:27:09 10° NNW 20:30:27 15° NNE 20:33:45 10° NE
Cosmos 1766 3.6 20:29:40 10° SSE 20:33:22 42° E 20:37:05 10° NNE
Thor Agena Rocket 3.6 20:28:09 10° NNE 20:33:29 85° ESE 20:38:42 10° SSW
Meteor 1-22 Rocket 4.3 20:29:59 10° S 20:35:27 52° E 20:40:45 10° NNE
USA 267 3.5 20:30:17 10° ENE 20:36:48 69° N 20:43:18 10° W
COSMOS 2406 3.6 20:35:44 10° S 20:40:59 39° ESE 20:46:18 10° NE
Cosmos 371 Rocket 3.9 20:37:09 10° SW 20:41:59 61° WNW 20:46:52 10° NNE
Cosmos 1726 Rocket 4.1 20:38:22 10° SSW 20:42:41 62° WNW 20:47:00 10° N
Cosmos 1758 4.4 20:40:20 14° SE 20:42:49 25° E 20:46:05 10° NE
MOS 1-B Rocket 3.9 20:39:21 10° SSE 20:45:18 69° ENE 20:50:54 10° NNW
YAOGAN 6 3.5 20:43:46 21° ESE 20:45:20 29° ENE 20:48:32 10° N
Cosmos 1674 3.2 20:43:36 10° N 20:47:09 38° ENE 20:49:15 20° SE
BREEZE-M DEB (TANK) 3.7 20:44:07 10° W 20:47:49 64° S 20:57:11 16° ESE
Spot 2 Rocket 3.4 20:43:31 10° SSE 20:48:33 73° ENE 20:53:35 10° NNW
Resurs 1-3 3.5 20:45:29 10° SSE 20:49:51 78° ENE 20:54:17 10° NNW
Cosmos 2369 4.0 20:44:30 10° NNW 20:50:01 50° NE 20:53:50 20° ESE
Cosmos 1544 3.1 20:46:57 10° S 20:50:28 52° E 20:54:01 10° NNE
Cosmos 2154 Rocket 4.2 20:47:19 10° SSE 20:53:14 48° E 20:59:14 10° NNE
In-Cosmos 22 4.4 20:48:12 10° NNW 20:53:51 79° W 20:59:35 10° S
Cosmos 1076 Rocket 4.2 20:49:50 10° N 20:53:52 34° ENE 20:55:49 23° ESE
SPOT 5 4.4 20:53:21 14° ENE 20:54:24 15° NE 20:56:59 10° NNE
Cosmos 1939 Rocket 3.1 20:51:56 19° SE 20:54:29 49° ENE 20:58:19 10° N
Cosmos 2084 3.2 20:51:59 10° SSW 20:55:54 58° SE 20:59:18 12° NE
Cosmos 2074 Rocket 3.9 20:50:25 10° S 20:56:38 85° E 21:02:53 10° NNE
Cosmos 1356 3.3 20:56:19 10° NNW 20:59:51 87° E 21:02:40 15° SSE
Cosmos 2341 Rocket 4.3 20:58:11 10° SSE 21:03:57 42° E 21:09:46 10° NNE
Cosmos 1814 Rocket 4.4 20:59:24 10° SW 21:04:32 64° WNW 21:09:40 10° NNE
Cosmos 1125 Rocket 4.0 21:01:34 10° NNW 21:06:48 61° WSW 21:12:01 10° S
Cosmos 1805 3.2 21:04:22 10° S 21:08:12 59° E 21:12:04 10° NNE
Cosmos 1733 4.4 21:11:13 24° ENE 21:11:13 24° ENE 21:13:36 10° NNE
GP-B 3.0 21:05:56 10° N 21:10:25 79° E 21:14:52 10° S
Resurs 01 Rocket 2.0 21:07:02 10° S 21:11:25 64° WSW 21:15:50 10° NNW
Cosmos 2228 4.1 21:07:20 10° SSW 21:11:34 48° WNW 21:15:46 10° N
ERS-1 Rocket 3.7 21:11:52 27° ESE 21:13:41 36° ENE 21:18:16 10° N
CZ-2D R/B 4.3 21:10:12 10° S 21:13:52 45° W 21:17:35 10° NNW
BREEZE-M DEB (TANK) 4.2 21:06:58 10° SW 21:14:02 25° S 21:15:14 23° SSE
USA 186 2.0 21:14:11 28° SSW 21:15:07 46° W 21:17:25 10° NNW
Cosmos 1408 Rocket 4.2 21:12:28 10° N 21:16:26 34° ENE 21:17:06 32° E
Nadezhda 3 Rocket 4.0 21:11:49 10° NNW 21:18:12 86° W 21:24:28 10° S
Envisat 3.2 21:15:50 10° S 21:20:53 71° WSW 21:26:00 10° NNW
Cosmos 1812 Rocket 3.5 21:16:57 10° S 21:21:25 81° E 21:25:55 10° NNE
Cosmos 292 Rocket 4.3 21:20:16 30° SE 21:21:43 36° ESE 21:26:10 10° NE
KORONAS-FOTON 3.7 21:17:57 10° N 21:21:46 65° ENE 21:22:49 43° SE
Cosmos 2278 3.6 21:19:28 10° NNW 21:25:11 77° ENE 21:28:04 30° SE
Cosmos 1470 3.6 21:26:37 33° ENE 21:26:37 33° ENE 21:29:32 10° NNE
Cosmos 304 Rocket 4.2 21:22:55 10° SW 21:27:41 64° WNW 21:32:30 10° NNE
H-2A R/B 2.9 21:30:21 28° ENE 21:31:09 30° ENE 21:35:33 10° N
Cosmos 2218 Rocket 4.5 21:30:39 32° ESE 21:32:21 38° E 21:37:59 10° NNE
Cosmos 1953 2.2 21:34:07 36° S 21:35:38 69° E 21:39:42 10° NNE
Okean 3 Rocket 3.6 21:34:03 10° NNW 21:38:34 82° W 21:40:41 31° S
Cosmos 2322 Rocket 3.6 21:34:30 10° NNW 21:39:03 24° NE 21:40:59 20° ENE
Cosmos 841 Rocket 4.4 21:36:51 10° SW 21:41:50 50° WNW 21:46:53 10° NNE
MetOp-B 4.3 21:40:54 41° ESE 21:42:27 56° ENE 21:47:41 10° N
Cosmos 2151 4.4 21:39:18 10° N 21:42:17 25° NE 21:42:17 25° NE
Cosmos 1766 Rocket 3.5 21:39:15 10° N 21:43:35 63° ENE 21:44:06 58° ESE
Cosmos 1743 Rocket 4.5 21:40:31 10° N 21:43:59 32° NE 21:43:59 32° NE
BREEZE-M DEB (TANK) 4.2 21:43:51 10° WSW 21:43:55 10° WSW 21:43:55 10° WSW
Meteor 2-15 Rocket 4.3 21:40:04 10° N 21:46:10 71° ENE 21:48:45 36° SSE
ATLAS 2AS CENTAUR R/B 3.0 21:38:24 10° NW 21:46:35 88° SW 21:50:23 34° SE
Cosmos 2360 Rocket 4.1 21:44:17 10° NNW 21:48:05 18° NNE 21:50:34 14° NE
Cosmos 1697 Rocket 2.7 21:44:13 10° NNW 21:49:55 72° NE 21:51:34 47° SE
Cosmos 1295 Rocket 4.3 21:44:30 12° S 21:50:11 75° E 21:56:17 10° NNE
Cosmos 1980 Rocket 2.5 21:45:22 10° NNW 21:50:53 50° NE 21:52:11 42° E
BREEZE M DEB (TANK) 3.0 21:47:47 10° W 21:51:01 35° SW 21:51:01 35° SW
SL-14 R/B 3.3 21:47:56 10° N 21:51:37 64° NE 21:51:37 64° NE
Helios 1B rocket 3.9 21:49:01 10° NNE 21:51:01 25° NE 21:51:01 25° NE
Cosmos 1727 Rocket 4.1 21:46:55 10° N 21:53:08 58° ENE 21:54:58 43° SE
Cosmos 1328 4.1 21:49:12 10° N 21:52:46 52° NE 21:52:46 52° NE
Iridium 4 Rocket 4.2 21:55:30 32° NE 21:55:30 32° NE 21:58:58 10° NNE
Helios 1A 3.0 21:53:58 56° S 21:54:47 79° WSW 21:59:00 10° NNW
Cosmos 1656 3.7 21:49:07 10° NNW 21:54:51 83° WSW 21:56:48 43° SSE
NOSS 3-4 (A) 4.2 21:51:49 10° NW 21:58:23 52° NNE 22:01:17 34° E
NOSS 3-4 (C) 4.2 21:51:55 10° NW 21:58:29 52° NNE 22:01:23 33° E
SL-8 Rocket 3.9 21:55:54 34° SSE 21:58:34 65° E 22:04:40 10° NNE
Cosmos 1809 Rocket 4.3 21:57:43 25° S 22:01:26 75° E 22:07:33 10° NNE
Cosmos 540 Rocket 3.9 21:56:51 10° SW 22:01:54 61° WNW 22:07:00 10° NNE
Terra 3.2 22:03:52 25° NE 22:03:52 25° NE 22:07:16 10° N
Cosmos 1400 Rocket 4.3 21:59:47 10° N 22:02:22 27° NE 22:02:22 27° NE
Cosmos 2084 Rocket 3.4 22:02:11 10° NW 22:05:36 68° NW 22:05:36 68° NW
SL-08 RB Rocket 3.9 22:07:12 56° NE 22:07:12 56° NE 22:11:21 10° N
Meteor 2-16 Rocket 4.4 22:13:01 56° SE 22:13:49 62° E 22:19:51 10° NNE
Cosmos 1500 Rocket 4.3 22:11:14 10° N 22:14:38 41° NE 22:14:38 41° NE
SL-16 R/B 3.1 22:11:08 10° NNW 22:16:21 35° NE 22:17:02 34° ENE
YAOGAN 6 4.3 22:18:12 26° WSW 22:18:53 28° W 22:22:05 10° NNW
USA 267 3.4 22:16:59 39° E 22:19:34 69° N 22:26:05 10° WNW
Meteor 2-14 Rocket 4.3 22:23:18 50° S 22:25:01 82° E 22:31:11 10° NNE
ARGOS 3.1 22:24:16 66° S 22:25:03 84° WSW 22:30:32 10° NNW
COSMOS 2406 4.1 22:19:40 10° SW 22:25:14 50° NW 22:30:51 10° NNE
Cosmos 1626 3.7 22:22:17 10° N 22:24:17 29° N 22:24:17 29° N
Cosmos 864 Rocket 4.4 22:26:14 60° SSE 22:27:23 75° E 22:33:43 10° NNE
MetOp-A 4.3 22:27:19 55° SSW 22:28:21 69° WSW 22:33:43 10° NNW
Meteor 2-21 Rocket 4.3 22:26:31 46° S 22:28:32 89° E 22:34:44 10° NNE
Cosmos 1339 Rocket 4.5 22:22:38 10° NNW 22:29:04 85° W 22:30:42 54° S
SPOT 5 3.0 22:32:35 60° N 22:32:35 60° N 22:36:18 10° NNW
H-2A R/B 4.1 22:35:56 20° NNE 22:35:56 20° NNE 22:38:01 10° N
Meteor 1-11 4.2 22:28:43 10° NNW 22:34:33 82° W 22:35:18 68° S
SPOT 1/Viking Rocket 3.5 22:37:11 75° NNE 22:37:11 75° NNE 22:42:03 10° NNW
Cosmos 1818 3.5 22:32:58 10° NW 22:38:24 80° WSW 22:38:24 80° WSW
Cosmos 2058 4.2 22:42:56 10° N 22:45:39 39° N 22:45:39 39° N
Cosmos 2056 Rocket 4.1 22:41:53 10° NNW 22:46:36 49° NNE 22:46:36 49° NNE
Cosmos 1833 Rocket 4.0 22:53:14 28° NE 22:53:14 28° NE 22:55:53 10° NE
ERS-1 Rocket 3.9 22:51:53 40° WSW 22:52:26 41° W 22:57:13 10° NNW
Cosmos 2219 Rocket 4.2 22:50:35 10° NNW 22:54:17 17° NNE 22:55:58 16° NE
Cosmos 2360 4.3 22:50:57 10° NW 22:56:25 72° W 22:56:25 72° W
Meteor 1-16 Rocket 4.2 22:57:25 70° NNW 22:57:25 70° NNW 23:02:16 10° NNE
Cosmos 2082 Rocket 3.2 23:12:36 37° NNE 23:12:36 37° NNE 23:15:57 10° NNE
H-2A R/B 2.7 23:10:59 48° WNW 23:10:59 48° WNW 23:15:21 10° NNW
Cosmos 2322 Rocket 2.7 23:18:19 10° NNW 23:22:47 56° NNW 23:22:47 56° NNW
Cosmos 1697 Rocket 4.3 23:28:51 10° NW 23:33:18 25° WSW 23:33:18 25° WSW
Cosmos 2360 Rocket 3.1 23:28:01 10° NNW 23:32:19 42° NNE 23:32:19 42° NNE
Cosmos 1980 Rocket 3.3 23:29:37 10° NW 23:33:57 36° W 23:33:57 36° W
ATLAS 2AS CENTAUR R/B 4.1 23:30:09 10° NW 23:36:46 30° WSW 23:37:50 29° SW
Terra 3.4 23:42:45 33° NW 23:42:45 33° NW 23:45:32 10° NNW
COSMOS 2428 4.0 23:44:08 10° NNW 23:48:26 34° NNE 23:48:26 34° NNE
NOSS 3-4 (A) 4.0 23:42:51 10° NW 23:48:42 59° W 23:48:42 59° W
NOSS 3-4 (C) 4.0 23:42:57 10° NW 23:48:48 60° W 23:48:48 60° W
